AFR75MT LFRS-LFMN

Flight info

Callsign AFR75MT
Flight time N/A
Altitude 35000
Route LUGEN UM184 TUPAR DCT DIDRU DCT ADATU DCT LERGA DCT LIQID DCT LATAM DCT TUNUR DCT NISAR
Aircraft A321/M-SDE3FGHIRWY/LB1

Departure

Time 2026-05-01 15:14
Airport Nantes Atlantique Airport (LFRS)

Arrival

Time N/A
Airport Nice-Côte d'Azur Airport (LFMN)
Time Latitude Longitude Altitude Speed Heading
2026-05-01 14:56 47.15636 -1.60106 90 ft 0 kts 20°
2026-05-01 15:05 47.15614 -1.60117 90 ft 4 kts 20°
2026-05-01 15:05 47.15589 -1.60130 92 ft 3 kts 20°
2026-05-01 15:05 47.15573 -1.60141 90 ft 4 kts 72°
2026-05-01 15:06 47.15575 -1.60172 90 ft 2 kts 117°
2026-05-01 15:06 47.15584 -1.60202 92 ft 4 kts 97°
2026-05-01 15:06 47.15582 -1.60240 91 ft 4 kts 66°
2026-05-01 15:06 47.15568 -1.60272 92 ft 4 kts 40°
2026-05-01 15:07 47.15549 -1.60289 92 ft 1 kts 20°
2026-05-01 15:08 47.15553 -1.60287 93 ft 4 kts 20°
2026-05-01 15:09 47.15614 -1.60287 90 ft 14 kts 329°
2026-05-01 15:09 47.15696 -1.60391 90 ft 14 kts 319°
2026-05-01 15:09 47.15782 -1.60445 91 ft 14 kts 11°
2026-05-01 15:09 47.15865 -1.60387 90 ft 13 kts 27°
2026-05-01 15:10 47.15942 -1.60328 90 ft 12 kts 27°
2026-05-01 15:10 47.16084 -1.60221 90 ft 11 kts 27°
2026-05-01 15:10 47.16149 -1.60170 91 ft 12 kts 28°
2026-05-01 15:11 47.16233 -1.60107 92 ft 13 kts 27°
2026-05-01 15:11 47.16279 -1.60073 91 ft 0 kts 26°
2026-05-01 15:11 47.16298 -1.60060 91 ft 9 kts 21°
2026-05-01 15:12 47.16376 -1.60070 88 ft 13 kts 346°
2026-05-01 15:12 47.16458 -1.60196 87 ft 4 kts 242°
2026-05-01 15:12 47.16444 -1.60213 88 ft 1 kts 214°
2026-05-01 15:13 47.16439 -1.60217 87 ft 2 kts 209°
2026-05-01 15:14 47.15689 -1.60788 87 ft 124 kts 207°
2026-05-01 15:14 47.14795 -1.61471 172 ft 161 kts 209°
2026-05-01 15:14 47.12856 -1.62940 1556 ft 156 kts 208°
2026-05-01 15:15 47.10638 -1.63264 2271 ft 195 kts 148°
2026-05-01 15:15 47.09253 -1.59410 2712 ft 244 kts 109°
2026-05-01 15:16 47.08125 -1.54390 4040 ft 265 kts 108°
2026-05-01 15:16 47.06749 -1.49348 5762 ft 270 kts 123°
2026-05-01 15:17 47.04112 -1.45395 7443 ft 274 kts 139°
2026-05-01 15:18 46.99788 -1.39774 9882 ft 280 kts 139°
2026-05-01 15:18 46.98319 -1.37859 10506 ft 289 kts 139°
2026-05-01 15:19 46.93923 -1.32133 11175 ft 339 kts 139°
2026-05-01 15:19 46.90346 -1.27478 12397 ft 349 kts 140°
2026-05-01 15:19 46.88520 -1.25108 13027 ft 354 kts 140°
2026-05-01 15:20 46.84786 -1.20276 14225 ft 363 kts 140°
2026-05-01 15:20 46.82891 -1.17821 14785 ft 367 kts 140°
2026-05-01 15:20 46.80975 -1.15335 15362 ft 370 kts 140°
2026-05-01 15:21 46.79044 -1.12829 15913 ft 373 kts 140°
2026-05-01 15:21 46.77096 -1.10302 16485 ft 376 kts 140°
2026-05-01 15:21 46.75132 -1.07755 17032 ft 379 kts 140°
2026-05-01 15:21 46.73152 -1.05188 17574 ft 382 kts 140°
2026-05-01 15:22 46.69136 -1.00002 18608 ft 389 kts 140°
2026-05-01 15:22 46.67105 -0.97387 19052 ft 391 kts 140°
2026-05-01 15:22 46.65055 -0.94750 19481 ft 394 kts 140°
2026-05-01 15:23 46.62997 -0.92104 19903 ft 397 kts 140°
2026-05-01 15:23 46.60922 -0.89441 20296 ft 399 kts 140°
2026-05-01 15:23 46.58833 -0.86765 20697 ft 401 kts 140°
2026-05-01 15:23 46.56733 -0.84072 21101 ft 404 kts 140°
2026-05-01 15:24 46.54625 -0.81357 21494 ft 406 kts 140°
2026-05-01 15:24 46.52508 -0.78623 21886 ft 409 kts 140°
2026-05-01 15:24 46.50375 -0.75870 22272 ft 412 kts 140°
2026-05-01 15:24 46.48226 -0.73102 22671 ft 414 kts 140°
2026-05-01 15:25 46.46064 -0.70318 23077 ft 417 kts 140°
2026-05-01 15:25 46.43986 -0.67442 23475 ft 421 kts 134°
2026-05-01 15:25 46.42181 -0.64002 23866 ft 426 kts 123°
2026-05-01 15:25 46.40847 -0.60157 24196 ft 430 kts 114°
2026-05-01 15:26 46.39686 -0.56149 24542 ft 432 kts 115°
2026-05-01 15:26 46.38502 -0.52136 24893 ft 434 kts 115°
2026-05-01 15:26 46.37320 -0.48158 25234 ft 436 kts 115°
2026-05-01 15:26 46.36116 -0.44110 25582 ft 438 kts 115°
2026-05-01 15:27 46.34912 -0.40051 25923 ft 440 kts 115°
2026-05-01 15:27 46.33707 -0.35966 26253 ft 442 kts 115°
2026-05-01 15:27 46.32500 -0.31861 26576 ft 445 kts 115°
2026-05-01 15:28 46.30072 -0.23588 27216 ft 449 kts 115°
2026-05-01 15:28 46.28844 -0.19427 27539 ft 451 kts 115°
2026-05-01 15:28 46.27606 -0.15249 27851 ft 453 kts 115°
2026-05-01 15:29 46.25106 -0.06841 28462 ft 457 kts 115°
2026-05-01 15:29 46.23846 -0.02621 28754 ft 460 kts 115°
2026-05-01 15:29 46.21296 0.05895 29304 ft 464 kts 115°
2026-05-01 15:30 46.18734 0.14434 30069 ft 463 kts 115°
2026-05-01 15:31 46.13635 0.31390 31473 ft 458 kts 116°
2026-05-01 15:31 46.11087 0.39802 32184 ft 456 kts 116°
2026-05-01 15:32 46.08539 0.48148 32908 ft 455 kts 116°
2026-05-01 15:32 46.06000 0.56463 33614 ft 453 kts 116°
2026-05-01 15:33 46.02209 0.68870 34578 ft 450 kts 116°
2026-05-01 15:34 45.98407 0.81214 35201 ft 452 kts 116°